• In Germany
  • List of Countries
  • For 7 days
  • Water Temperature
  • Satellite Maps
  • Weather Map
  • Weather Widgets
  • user-avatar
    Login

    Hourly Weather Elan

    Today, 24 April, Tuesday

    Time Temperature Precipitation Wind Pressure Humidity
    00:00 +10°C° 0 mm 2 mps 701 mmHg 38%
    01:00 +9°C° 0 mm 2 mps 700 mmHg 37%
    02:00 +8°C° 0 mm 2 mps 700 mmHg 39%
    03:00 +8°C° 0 mm 2 mps 700 mmHg 40%
    04:00 +8°C° 0 mm 2 mps 699 mmHg 42%
    05:00 +9°C° 0 mm 2 mps 699 mmHg 39%
    06:00 +12°C° 0 mm 2 mps 699 mmHg 36%
    07:00 +12°C° 0 mm 3 mps 699 mmHg 34%
    08:00 +16°C° 0 mm 3 mps 699 mmHg 30%
    09:00 +18°C° 0 mm 4 mps 698 mmHg 25%
    10:00 +21°C° 0 mm 5 mps 698 mmHg 21%
    11:00 +22°C° 0 mm 5 mps 698 mmHg 19%
    12:00 +25°C° 0 mm 5 mps 697 mmHg 16%
    13:00 +26°C° 0 mm 6 mps 697 mmHg 14%
    14:00 +26°C° 0 mm 6 mps 696 mmHg 14%
    15:00 +26°C° 0 mm 6 mps 695 mmHg 14%
    16:00 +26°C° 0 mm 6 mps 695 mmHg 14%
    17:00 +23°C° 0 mm 5 mps 694 mmHg 18%
    18:00 +21°C° 0 mm 4 mps 694 mmHg 22%
    19:00 +18°C° 0 mm 3 mps 694 mmHg 25%
    20:00 +17°C° 0 mm 3 mps 694 mmHg 27%
    21:00 +16°C° 0 mm 2 mps 694 mmHg 29%
    22:00 +15°C° 0 mm 2 mps 694 mmHg 31%
    23:00 +14°C° 0 mm 2 mps 694 mmHg 32%

    Tomorrow, 25 April, Wednesday

    Time Temperature Precipitation Wind Pressure Humidity
    00:00 +13°C° 0 mm 2 mps 694 mmHg 34%
    01:00 +12°C° 0 mm 2 mps 694 mmHg 36%
    02:00 +11°C° 0 mm 3 mps 695 mmHg 44%
    03:00 +10°C° 0 mm 3 mps 695 mmHg 51%
    04:00 +9°C° 0 mm 3 mps 696 mmHg 59%
    05:00 +10°C° 0 mm 3 mps 697 mmHg 59%
    06:00 +11°C° 0 mm 4 mps 697 mmHg 58%
    07:00 +11°C° 0 mm 4 mps 698 mmHg 58%
    08:00 +12°C° 0 mm 4 mps 698 mmHg 53%
    09:00 +13°C° 0 mm 4 mps 699 mmHg 48%
    10:00 +14°C° 0 mm 4 mps 699 mmHg 42%
    11:00 +15°C° 0 mm 4 mps 699 mmHg 39%
    12:00 +17°C° 0 mm 4 mps 699 mmHg 35%
    13:00 +18°C° 0 mm 4 mps 699 mmHg 32%
    14:00 +18°C° 0 mm 4 mps 699 mmHg 31%
    15:00 +18°C° 0 mm 4 mps 699 mmHg 31%
    16:00 +18°C° 0 mm 4 mps 698 mmHg 30%
    17:00 +17°C° 0 mm 3 mps 698 mmHg 35%
    18:00 +15°C° 0 mm 2 mps 698 mmHg 40%
    19:00 +13°C° 0 mm 1 mps 698 mmHg 44%
    20:00 +12°C° 0 mm 1 mps 698 mmHg 47%
    21:00 +11°C° 0 mm 1 mps 698 mmHg 49%
    22:00 +10°C° 0 mm 1 mps 699 mmHg 52%
    23:00 +10°C° 0 mm 1 mps 699 mmHg 53%

    Day after tomorrow, 26 April, Thursday

    Time Temperature Precipitation Wind Pressure Humidity
    00:00 +8°C° 0 mm 2 mps 699 mmHg 54%
    01:00 +8°C° 0 mm 2 mps 699 mmHg 55%
    02:00 +8°C° 0 mm 2 mps 699 mmHg 56%
    03:00 +7°C° 0 mm 2 mps 699 mmHg 57%
    04:00 +7°C° 0 mm 2 mps 699 mmHg 58%
    05:00 +9°C° 0 mm 2 mps 699 mmHg 53%
    06:00 +12°C° 0 mm 2 mps 699 mmHg 48%
    07:00 +13°C° 0 mm 2 mps 700 mmHg 43%
    08:00 +14°C° 0 mm 3 mps 700 mmHg 40%
    09:00 +18°C° 0 mm 3 mps 700 mmHg 36%
    10:00 +20°C° 0 mm 3 mps 700 mmHg 33%
    11:00 +21°C° 0 mm 3 mps 700 mmHg 30%
    12:00 +22°C° 0 mm 3 mps 699 mmHg 27%
    13:00 +24°C° 0 mm 2 mps 699 mmHg 24%
    14:00 +24°C° 0 mm 2 mps 699 mmHg 24%
    15:00 +24°C° 0 mm 2 mps 698 mmHg 24%
    16:00 +24°C° 0 mm 1 mps 698 mmHg 24%
    17:00 +22°C° 0 mm 1 mps 697 mmHg 29%
    18:00 +20°C° 0 mm 1 mps 697 mmHg 33%
    19:00 +18°C° 0 mm 1 mps 697 mmHg 38%
    20:00 +16°C° 0 mm 1 mps 696 mmHg 40%
    21:00 +15°C° 0 mm 1 mps 696 mmHg 41%
    22:00 +14°C° 0 mm 2 mps 696 mmHg 43%
    23:00 +14°C° 0 mm 2 mps 695 mmHg 44%

    27 April, Friday

    Time Temperature Precipitation Wind Pressure Humidity
    00:00 +13°C° 0 mm 2 mps 695 mmHg 46%
    01:00 +13°C° 0 mm 2 mps 694 mmHg 47%
    02:00 +12°C° 0 mm 2 mps 694 mmHg 49%
    03:00 +11°C° 0 mm 1 mps 694 mmHg 51%
    04:00 +11°C° 0 mm 1 mps 694 mmHg 53%
    05:00 +12°C° 0 mm 2 mps 695 mmHg 54%
    06:00 +12°C° 0 mm 3 mps 695 mmHg 55%
    07:00 +13°C° 0 mm 4 mps 695 mmHg 56%
    08:00 +14°C° 0 mm 4 mps 696 mmHg 54%
    09:00 +15°C° 0 mm 5 mps 696 mmHg 52%
    10:00 +16°C° 0 mm 5 mps 696 mmHg 50%
    11:00 +17°C° 0 mm 5 mps 696 mmHg 48%
    12:00 +19°C° 0 mm 5 mps 696 mmHg 46%
    13:00 +19°C° 0 mm 5 mps 696 mmHg 44%
    14:00 +17°C° 0 mm 5 mps 696 mmHg 44%
    15:00 +17°C° 0 mm 5 mps 696 mmHg 45%
    16:00 +16°C° 0 mm 6 mps 696 mmHg 45%
    17:00 +15°C° 0 mm 5 mps 696 mmHg 49%
    18:00 +14°C° 0 mm 4 mps 696 mmHg 52%
    19:00 +12°C° 0 mm 3 mps 696 mmHg 56%
    20:00 +11°C° 0.5 mm 3 mps 696 mmHg 63%
    21:00 +10°C° 0.5 mm 2 mps 697 mmHg 69%
    22:00 +10°C° 0.5 mm 2 mps 697 mmHg 76%
    23:00 +9°C° 0.2 mm 2 mps 697 mmHg 77%

    28 April, Saturday

    Time Temperature Precipitation Wind Pressure Humidity
    00:00 +9°C° 0.2 mm 3 mps 698 mmHg 78%
    01:00 +8°C° 0.2 mm 3 mps 698 mmHg 79%
    02:00 +8°C° 0.1 mm 3 mps 698 mmHg 79%
    03:00 +7°C° 0.1 mm 3 mps 699 mmHg 78%
    04:00 +7°C° 0.1 mm 3 mps 699 mmHg 77%
    05:00 +6°C° 0 mm 4 mps 700 mmHg 72%
    06:00 +6°C° 0 mm 4 mps 700 mmHg 67%
    07:00 +6°C° 0 mm 4 mps 700 mmHg 62%
    08:00 +7°C° 0 mm 4 mps 701 mmHg 55%
    09:00 +8°C° 0 mm 4 mps 701 mmHg 49%
    10:00 +11°C° 0 mm 4 mps 701 mmHg 43%
    11:00 +11°C° 0 mm 4 mps 701 mmHg 41%
    12:00 +11°C° 0 mm 4 mps 700 mmHg 38%
    13:00 +12°C° 0 mm 4 mps 700 mmHg 36%
    14:00 +12°C° 0 mm 4 mps 700 mmHg 35%
    15:00 +12°C° 0 mm 4 mps 700 mmHg 34%
    16:00 +12°C° 0 mm 4 mps 700 mmHg 33%
    17:00 +11°C° 0 mm 3 mps 700 mmHg 35%
    18:00 +10°C° 0 mm 3 mps 700 mmHg 38%
    19:00 +8°C° 0 mm 2 mps 700 mmHg 41%
    20:00 +7°C° 0 mm 2 mps 700 mmHg 44%
    21:00 +7°C° 0 mm 2 mps 701 mmHg 47%
    22:00 +7°C° 0 mm 1 mps 701 mmHg 51%
    23:00 +6°C° 0 mm 1 mps 701 mmHg 54%

    29 April, Sunday

    Time Temperature Precipitation Wind Pressure Humidity
    00:00 +5°C° 0 mm 1 mps 701 mmHg 57%
    01:00 +5°C° 0 mm 1 mps 701 mmHg 61%
    02:00 +4°C° 0 mm 1 mps 700 mmHg 63%
    03:00 +3°C° 0 mm 1 mps 700 mmHg 66%
    04:00 +2°C° 0 mm 0 mps 700 mmHg 69%
    05:00 +4°C° 0 mm 1 mps 700 mmHg 62%
    06:00 +6°C° 0 mm 1 mps 700 mmHg 55%
    07:00 +8°C° 0 mm 1 mps 700 mmHg 48%
    08:00 +9°C° 0 mm 1 mps 700 mmHg 42%
    09:00 +11°C° 0 mm 1 mps 699 mmHg 35%
    10:00 +13°C° 0 mm 2 mps 699 mmHg 28%
    11:00 +13°C° 0 mm 2 mps 698 mmHg 26%
    12:00 +14°C° 0 mm 2 mps 698 mmHg 24%
    13:00 +15°C° 0 mm 2 mps 697 mmHg 22%
    14:00 +15°C° 0 mm 2 mps 697 mmHg 21%
    15:00 +14°C° 0 mm 3 mps 696 mmHg 21%
    16:00 +14°C° 0 mm 3 mps 696 mmHg 21%
    17:00 +12°C° 0 mm 3 mps 696 mmHg 24%
    18:00 +12°C° 0 mm 2 mps 696 mmHg 27%
    19:00 +9°C° 0 mm 2 mps 696 mmHg 30%
    20:00 +8°C° 0 mm 2 mps 696 mmHg 32%
    21:00 +7°C° 0 mm 2 mps 697 mmHg 34%
    22:00 +6°C° 0 mm 2 mps 697 mmHg 36%
    23:00 +5°C° 0 mm 2 mps 697 mmHg 38%
    Show more